2017-008AA

Last updated on Wed Mar 01 2017 00:15:03 GMT+0000 (Coordinated Universal Time)

1 41972U 17008AA 17059.75253237 .00001578 00000-0 73218-4 0 9991 2 41972 97.5083 121.3566 0008164 204.4385 155.6441 15.21524945 1966
UTC large
Height (km)
Speed (km/s)
/
Latitude / Longitude
Inclination (degrees)
Orbital Period (minutes)
Azimuth
Elevation
Range (km)
Doppler Factor

Next 0 passes for location: London (51.5072 / 0.1276)

Sorry there are no passes over London.